Hourly Data Report for September 03, 2017

All times are specified in Local Standard Time (LST). Add 1 hour to adjust for Daylight Saving Time where and when it is observed.

MIRAMICHI RCS
NEW BRUNSWICK

47°00'34.000" N
65°27'54.000" W
33.00 m
8100989
71744
ACQ

Download Data

Hourly Data (September 2017)
Hourly Data Report for September 3, 2017
Temp Definition
°C
Dew Point Temp Definition
°C
Rel Hum Definition
%
Wind Dir Definition
10's deg

Wind Spd Definition
km/h
Visibility Definition
km
Stn Press Definition
kPa
Hmdx Definition


Wind Chill Definition


Weather Definition


TIME
00:00 8.9 6.9 87 24 3   101.80     LegendNANA
01:00 7.4 5.8 90 26 3   101.82     LegendNANA
02:00 6.4 4.8 90 28 4   101.83     LegendNANA
03:00 6.0 4.6 91 26 4   101.83     LegendNANA
04:00 6.7 6.0 95 27 6   101.85     LegendNANA
05:00 6.5 5.4 93 27 5   101.85     LegendNANA
06:00 5.1 3.9 92   0   101.89     LegendNANA
07:00 7.0 5.9 93 27 4   101.94     LegendNANA
08:00 10.2 6.9 80 23 4   101.95     LegendNANA
09:00 13.9 7.3 64 0 1   101.96     LegendNANA
10:00 16.4 7.5 55 28 2   101.94     LegendNANA
11:00 18.7 8.2 50 14 3   101.84     LegendNANA
12:00 19.1 9.4 53 19 10   101.76     LegendNANA
13:00 20.5 9.3 48 17 10   101.70     LegendNANA
14:00 21.0 8.4 44 17 17   101.60     LegendNANA
15:00 21.9 9.5 45 17 14   101.52     LegendNANA
16:00 21.7 8.8 44 14 16   101.43     LegendNANA
17:00 21.5 9.1 45 15 20   101.37     LegendNANA
18:00 20.2 9.3 49 15 15   101.30     LegendNANA
19:00 18.0 7.1 49 14 18   101.23     LegendNANA
20:00 16.5 8.1 58 13 11   101.19     LegendNANA
21:00 15.6 9.2 66 15 10   101.09     LegendNANA
22:00 14.6 9.4 71 13 11   100.99     LegendNANA
23:00 13.6 9.6 77 12 9   100.88     LegendNANA

Notes on Data Quality.

Legend

  • E = Estimated
  • M = Missing
  • NA = Not Available
  • ‡ = Partner data that is not subject to review by the National Climate Archives
Date modified: